Location: Bad Gandersheim
(51.8717°N, 10.0254°E)
Time: 02:07:54
(UTC+00:00)

Daily predictions for brighter satellites

Satellite Brightness Start Highest point End
(mag) Time Altitude Azimuth Time Altitude Azimuth Time Altitude Azimuth
Cosmos 2360 Rocket 4.1 00:05:01 10° WNW 00:07:54 14° W 00:09:32 13° WSW
Nadezhda 1 Rocket 4.1 00:01:39 10° NNW 00:08:01 70° W 00:11:32 28° S
NOSS 2-1 (E) 4.4 00:06:21 16° W 00:08:39 36° NNW 00:12:10 10° NE
Cosmos 1862 Rocket 4.1 00:06:36 10° NNW 00:10:48 45° W 00:12:10 33° SW
Cosmos 1980 3.6 00:06:01 10° NNW 00:11:43 81° WSW 00:15:18 24° SSE
Cosmos 1666 2.6 00:12:13 44° S 00:13:21 89° W 00:17:15 10° N
Cosmos 1378 3.2 00:09:40 10° N 00:13:22 68° ENE 00:14:41 37° SSE
MOZ.5/SAFIR/RUBIN 5/SL-8 4.0 00:12:38 25° SSE 00:15:24 71° ENE 00:20:08 10° N
Resurs 1-4 Rocket 3.4 00:11:13 10° NNE 00:15:56 31° E 00:19:09 17° SE
USA 229 DEB 4.2 00:09:35 10° NW 00:16:35 50° WSW 00:21:07 24° S
USA 229 4.1 00:09:41 10° NW 00:16:40 50° WSW 00:21:16 23° S
Intercosmos 25 Rocket 3.8 00:18:31 33° SSE 00:19:49 52° E 00:24:22 10° NNE
Lacrosse 5 3.4 00:21:12 19° SE 00:22:22 21° SE 00:26:06 10° E
Cosmos 2084 Rocket 3.3 00:19:11 10° NW 00:23:23 89° SSW 00:27:01 14° SE
Cosmos 1703 Rocket 3.4 00:20:33 10° NNW 00:24:54 85° W 00:26:49 33° S
ADEOS Rocket 3.7 00:21:56 10° SE 00:27:13 45° ENE 00:32:25 10° N
COSMOS 2487 4.2 00:25:44 18° W 00:27:17 25° NW 00:30:09 10° N
USA 267 3.9 00:20:53 10° ENE 00:27:17 59° N 00:33:41 10° W
Meteor 1-14 Rocket 4.4 00:26:17 28° SSW 00:29:15 64° WNW 00:34:51 10° N
Cosmos 2297 Rocket 2.5 00:31:41 27° S 00:34:38 56° ESE 00:40:11 10° NE
Cosmos 2237 Rocket 2.3 00:30:24 10° NW 00:35:59 60° WSW 00:39:17 25° S
Meteor 1-13 Rocket 4.2 00:30:58 10° NNW 00:36:52 80° W 00:40:26 24° S
CZ-4 R/B 3.9 00:31:58 10° NNE 00:36:57 79° ESE 00:39:36 29° S
Cosmos 1536 3.2 00:35:32 30° SSE 00:37:15 57° E 00:41:13 10° NNE
ARGOS Delta rocket 3.7 00:32:52 10° NNE 00:37:45 89° ESE 00:40:01 30° SSW
Cosmos 2181 Rocket 4.1 00:33:01 10° N 00:39:27 83° E 00:44:07 19° SSE
BREEZE-M DEB (TANK) 3.6 00:35:12 10° WSW 00:40:58 37° S 00:43:54 10° ESE
EO 1 Del DPAF 3.7 00:40:53 10° N 00:44:31 49° WNW 00:45:57 30° SW
Cosmos 2227 Rocket 2.6 00:42:17 24° S 00:45:25 52° ESE 00:50:55 10° NE
Cosmos 2242 Rocket 3.9 00:44:04 10° NNW 00:48:21 52° W 00:50:12 30° SSW
TSX-5 3.8 00:50:00 34° SSW 00:51:36 88° SE 00:56:15 10° NE
NOSS 2-2 (D) 4.3 00:47:37 10° NW 00:52:43 66° SW 00:59:51 10° SSE
Cosmos 1544 3.0 00:52:00 35° S 00:53:26 83° E 00:57:05 10° NNE
CZ-2D R/B 2.5 00:48:13 10° NNE 00:53:32 59° ESE 00:57:06 21° S
ASTEX 1 3.4 00:51:41 27° S 00:54:24 70° W 00:59:18 10° N
CZ-4C R/B 3.4 00:49:52 10° NW 00:56:37 63° NE 01:04:39 10° ESE
ADEOS II 3.4 00:52:01 10° NNE 00:56:46 33° E 01:01:02 12° SSE
COSMOS 2428 4.3 00:55:14 10° WNW 00:58:50 17° W 01:00:23 16° WSW
SL-16 R/B 2.2 00:54:01 10° NNW 00:59:44 85° ENE 01:05:25 10° SSE
Meteor 1-23 Rocket 4.2 00:54:46 10° NNW 01:00:28 88° WSW 01:04:59 17° S
Cosmos 1269 Rocket 4.1 01:00:30 24° SW 01:03:41 73° WNW 01:09:00 10° NNE
Cosmos 2219 Rocket 4.1 01:02:41 10° WNW 01:04:53 12° W 01:06:11 11° WSW
Cosmos 2263 Rocket 4.2 01:09:02 10° SE 01:12:52 19° E 01:16:43 10° ENE
Cosmos 1869 Rocket 3.7 01:11:10 25° SSW 01:13:40 70° WNW 01:18:11 10° N
Nadezhda 3 Rocket 4.4 01:13:54 10° N 01:20:16 67° ENE 01:26:36 10° SSE
Cosmos 1743 2.6 01:19:32 26° SSW 01:21:38 80° WNW 01:25:28 10° N
Cosmos 1992 Rocket 4.2 01:16:42 10° NNW 01:21:47 52° WSW 01:25:37 17° S
Cosmos 1340 Rocket 4.0 01:20:53 19° WSW 01:22:53 30° WNW 01:26:24 10° N
COSMOS 2455 4.1 01:19:02 10° WSW 01:24:33 36° NW 01:30:06 10° NNE
Meteor 1-28 Rocket 3.8 01:21:57 10° SSE 01:25:37 56° ENE 01:29:16 10° N
Cosmos 2221 Rocket 3.6 01:23:21 10° NNW 01:27:55 82° W 01:31:41 15° S
Okean 3 4.3 01:24:07 10° NNW 01:28:03 35° W 01:30:09 22° SW
Helios 1A 4.3 01:27:31 20° SW 01:29:04 24° W 01:32:33 10° NW
GEOS 3 Rocket 4.3 01:26:02 10° ESE 01:31:17 61° NE 01:36:32 10° NW
Cosmos 2219 3.3 01:28:53 19° SW 01:33:05 74° WNW 01:38:52 10° NNE
Timation 2 Rocket 3.9 01:31:17 19° SSW 01:35:44 85° ESE 01:41:56 10° NNE
Cosmos 1975 3.6 01:34:17 13° SSE 01:37:45 50° E 01:41:44 10° NNE
Cosmos 1943 4.1 01:33:51 10° NNW 01:39:27 52° NE 01:45:01 10° SE
MINOTAUR 4 R/B 4.0 01:38:26 13° SSE 01:41:31 82° WSW 01:45:07 10° NNW
Cosmos 1707 3.5 01:40:43 10° N 01:44:30 52° ENE 01:48:15 10° SSE
UNK 4.4 01:41:38 18° SSW 01:44:37 38° W 01:49:01 10° NNW
Cosmos 1674 Rocket 3.6 01:41:12 10° N 01:45:39 89° E 01:50:05 10° S
Cosmos 1238 Rocket 3.3 01:43:34 12° SSE 01:46:13 43° E 01:49:34 10° NNE
Helios 1B rocket 2.4 01:42:42 10° NNE 01:46:49 73° WNW 01:49:49 18° SSW
IDEFIX/ARIANE 42P 3.3 01:42:44 10° NNE 01:47:47 50° E 01:52:49 10° S
ATLAS 5 CENTAUR R/B 3.8 01:44:20 10° WNW 01:48:05 18° WSW 01:50:05 15° SW
SL-16 R/B 3.1 01:44:52 15° SSW 01:49:30 40° W 01:55:18 10° NNW
Cosmos 2184 Rocket 4.1 01:45:03 15° SSW 01:50:15 73° WNW 01:56:35 10° N
Cosmos 2082 3.8 01:48:53 16° SSW 01:53:33 84° ESE 01:59:19 10° NNE
Meteor 1-29 3.0 01:50:35 10° NNE 01:53:55 74° ESE 01:56:32 15° S
Resurs 1-4 Rocket 2.6 01:50:51 10° N 01:55:58 48° WNW 02:00:13 14° SW
Cosmos 2154 Rocket 4.0 01:51:28 12° S 01:57:17 88° W 02:03:33 10° N
Cosmos 1842 3.5 01:54:32 10° NNW 01:58:16 50° W 02:01:26 14° SSW
Cosmos 2251 Rocket 3.5 01:54:37 15° SSW 01:58:58 84° WNW 02:04:20 10° NNE
Lacrosse 5 1.9 02:00:23 14° SW 02:04:43 76° SE 02:09:48 10° ENE
Cosmos 1378 Rocket 3.6 02:02:37 10° NNW 02:06:59 66° W 02:11:17 10° S
Meteor 1-21 4.3 02:03:27 10° NNW 02:09:12 69° W 02:14:57 10° S
USA 267 3.7 02:03:29 10° E 02:09:57 66° NNE 02:16:26 10° WNW
MSX 4.3 02:05:21 10° NNE 02:11:02 59° ESE 02:16:40 10° S
ADEOS Rocket 3.5 02:08:20 12° SSW 02:12:58 34° W 02:17:56 10° NNW
Cosmos 2074 Rocket 4.4 02:09:07 13° SW 02:14:34 49° WNW 02:20:37 10° N
NPP 4.3 02:09:45 10° N 02:14:51 44° WNW 02:19:38 11° SW
NOSS 3-4 (A) 4.5 02:09:51 10° NW 02:16:28 60° NE 02:23:55 10° ESE
NOSS 3-4 (C) 4.5 02:09:56 10° NW 02:16:35 60° NE 02:24:02 10° ESE
Cosmos 1340 3.4 02:14:41 10° N 02:18:25 54° ENE 02:22:05 10° SSE
Cosmos 1908 Rocket 3.7 02:14:11 10° S 02:18:30 75° E 02:22:50 10° NNE
Cosmos 2237 Rocket 4.1 02:17:34 10° W 02:18:52 11° W 02:20:10 10° WSW
Cosmos 2297 Rocket 3.3 02:13:48 10° WSW 02:18:58 35° NW 02:24:11 10° NNE
Cosmos 1140 Rocket 3.8 02:15:10 10° S 02:20:21 65° ESE 02:25:34 10° NNE
Cosmos 1626 3.7 02:20:01 10° N 02:23:31 38° ENE 02:26:58 10° SE
Cosmos 1356 Rocket 3.3 02:20:20 10° SSW 02:24:23 87° W 02:28:25 10° NNE
Cosmos 1733 Rocket 3.8 02:22:03 12° SW 02:25:56 40° WNW 02:30:10 10° N
ATLAS 2AS CENTAUR R/B 4.1 02:18:47 10° NW 02:26:03 47° NNE 02:32:49 10° E
Cosmos 1603 3.7 02:21:09 10° NNW 02:26:47 81° WSW 02:32:25 10° SSE
ARIANE 5 R/B 3.3 02:21:53 10° NNE 02:26:56 52° E 02:31:59 10° S
Cosmos 1674 3.0 02:24:43 10° N 02:28:34 72° E 02:32:23 10° SSE
Cosmos 2227 Rocket 3.2 02:24:28 10° WSW 02:29:42 37° NW 02:34:58 10° NNE
Cosmos 44 3.5 02:26:59 10° NW 02:32:13 59° SW 02:37:08 10° SSE
CZ-2D R/B 3.4 02:28:47 10° N 02:33:17 28° WNW 02:37:49 10° WSW
SL-8 Rocket 4.2 02:28:38 10° S 02:34:48 76° E 02:40:58 10° NNE
ADEOS II 2.7 02:31:36 10° N 02:36:36 45° WNW 02:41:34 10° SW
Cosmos 2366 rocket 4.5 02:31:09 10° S 02:37:25 67° E 02:43:44 10° NNE
Cosmos 1025 Rocket 4.1 02:34:31 10° N 02:38:44 49° ENE 02:42:56 10° SSE
Okean 2 4.3 02:36:35 10° NNW 02:40:19 32° W 02:44:02 10° SSW
IRS-1D 3.9 02:37:05 10° N 02:41:52 50° WNW 02:46:40 10° SW
SL-16 R/B 3.6 02:39:13 10° NW 02:43:08 20° W 02:47:04 10° SW
IRS-1C 4.2 02:38:45 10° NNE 02:44:08 84° ESE 02:49:29 10° SSW
CZ-4C R/B 3.2 02:38:26 10° NW 02:45:19 50° WSW 02:53:16 10° SSE
Cosmos 2227 4.4 02:41:00 10° SSW 02:46:35 71° ESE 02:52:11 10° NE
CZ-4C R/B 3.9 02:43:44 10° S 02:47:39 42° W 02:51:45 10° NNW
CZ-2D R/B 4.0 02:45:28 10° NNE 02:49:24 57° E 02:53:23 10° S
SL-24 R/B 4.5 02:47:30 10° SSE 02:52:53 83° WSW 02:57:34 10° NNW
Meteor 2-20 4.5 02:47:25 10° NNW 02:53:33 74° W 02:59:41 10° S
